星链-37149(STARLINK-37149)

导读

STARLINK-37149(NORAD编号68309)是SpaceX星链星座中的一颗互联网通信卫星,归属星链 Gen2 卫星系列,运行于近地轨道。 作为星链网络的组成部分,其核心任务是为全球范围提供低延迟高速卫星互联网接入服务,支持消费端互联网连接、偏远地区通信保障以及特殊场景网络覆盖等应用。 目前公开轨道数据显示,该卫星维持在预定近地轨道高度运行,SpaceX通过星链卫星群的自主轨道调整能力,持续管控星座运行,保障太空运行安全与网络服务稳定性。

Basic Information
目录编号:
68309
目录名称:
STARLINK-37149
国际标识:
2026-057R
轨道中心:
EARTH
卫星名称:
星链-37149
卫星全名:
星链-37149(STARLINK-37149)
卫星状态:
在轨 (已飞行168 天)
发射日期:
2026-03-20 UTC
国别 :
美国 (US)
星等 :
--
Orbit Information
数据来源 国际轨道数据
星历时间: 2026-09-04T15:17:36+0800
11小时前
查看轨道信息
半长轴: 6843.637km
偏心率: 0.0002048
轨道倾角: 97.284°
近地点辐角 114.298°
升交点赤经 12.966°
平近点角 245.848°
近地点: 464.098km
远地点: 466.902km
周期: 93.905分钟
每日圈数: 15.334596
Detailed Information
固有亮度:
5
最大亮度:
2.5
卫星平台:
Starlink V1.0
覆盖范围:
全球
运营商:
太空探索技术公司
运营商所在国:
美国
制造商(研发单位):
太空探索技术公司
制造商所在国:
美国
使用方式:
暂无
Satellite Introduction
Starlink 计划是 SpaceX 推出的全球卫星互联网项目,通过发射低轨道卫星,为全球尤其是偏远地区提供高速、低延迟的互联网服务。自 2019 年起,Starlink 已部署数千颗卫星,旨在缩小全球数字鸿沟,推动互联网普及。该项目还为军事、航空等行业提供通信支持,带来广泛经济效益。
2D Orbit Map
3D Orbit Map
Orbit Altitude Analysis Chart
Orbit Inclination Analysis Chart
Orbit Comprehensive Analysis Chart
View Comprehensive Chart
Conjunction Data List
Event ID Objects TCA Miss Dist (km) Collision Risk Probability Collision Risk Index (CRI) Action
CDM_260903-082206-594606-830922
OBJECT B (65946)
2026-09-03T
08:22:03+0000
1.012 km
极远距离
9.512682E-6 低风险 0.55
CDM_260906-092106-563406-830921
2026-09-06T
09:21:05+0000
2.548 km
极远距离
1.693249E-6 低风险 0.4
CDM_260905-023906-545806-830921
2026-09-05T
02:39:14+0000
2.610 km
极远距离
1.550058E-6 低风险 0.39
CDM_260904-211105-017106-830921
2026-09-04T
21:11:19+0000
2.636 km
极远距离
1.546764E-6 低风险 0.39
CDM_260906-030606-351306-830922
2026-09-06T
03:06:53+0000
2.057 km
极远距离
1.493342E-6 低风险 0.38
CDM_260905-234604-773306-830921
2026-09-05T
23:46:56+0000
2.615 km
极远距离
1.341276E-6 低风险 0.38